This demonstration page uses our WeatherBlox Daily Observations layout. Learn more.

Left ArrowRight Arrow

38.88101, -77.10428

Hourly Observations for August 15, 2020

Temp ( °F °C ) Dew Point ( °F °C ) Humidity (%) Winds ( mph kmh ) Pressure ( in mb ) Visibility ( mi km ) Precip ( " mm )
12:52 am 00:52 Cloudy 78 25.6 70 21.1 76 76 E 3 6 29.97 1015 10 16.0934 0 0
1:52 am 01:52 Cloudy with Light Rain 77 25 70 21.1 79 79 NE 3 6 29.97 1015 10 16.0934 0.001 0.001
2:52 am 02:52 Cloudy with Light Rain 77 25 70 21.1 79 79 NNE 5 7 29.97 1015 10 16.0934 0.001 0.001
3:52 am 03:52 Cloudy with Light Rain 77 25 69 20.6 77 77 NNE 7 11 29.97 1015 10 16.0934 0.001 0.001
4:52 am 04:52 Cloudy with Light Rain 75 23.9 68 20 79 79 NNE 6 9 29.96 1015 10 16.0934 0.001 0.001
5:52 am 05:52 Cloudy with Light Rain 75 23.9 68 20 79 79 NNE 9 15 29.96 1015 10 16.0934 0.001 0.001
6:52 am 06:52 Cloudy 75 23.9 68 20 79 79 NNE 8 13 29.97 1015 10 16.0934 0.001 0.001
7:52 am 07:52 Cloudy with Light Rain 75 23.9 69 20.6 82 82 ENE 7 11 29.98 1015 10 16.0934 0.001 0.001
8:52 am 08:52 Cloudy 76 24.4 68 20 77 77 NE 9 15 29.99 1016 10 16.0934 0.001 0.001
9:52 am 09:52 Cloudy 76 24.4 68 20 77 77 ENE 10 17 29.99 1016 10 16.0934 0 0
10:52 am 10:52 Cloudy 77 25 67 19.4 71 71 ENE 12 19 29.99 1016 10 16.0934 0 0
11:52 am 11:52 Cloudy 78 25.6 66 18.9 67 67 ENE 9 15 29.98 1015 10 16.0934 0.001 0.001
12:52 pm 12:52 Cloudy with Light Rain 79 26.1 66 18.9 65 65 ENE 8 13 29.98 1015 10 16.0934 0.001 0.001
1:52 pm 13:52 Cloudy 79 26.1 65 18.3 62 62 ENE 9 15 29.98 1015 10 16.0934 0.001 0.001
2:52 pm 14:52 Cloudy 79 26.1 67 19.4 67 67 ENE 8 13 29.96 1015 10 16.0934 0.001 0.001
3:52 pm 15:52 Cloudy with Light Rain 79 26.1 67 19.4 67 67 E 13 20 29.95 1014 10 16.0934 0.001 0.001
4:52 pm 16:52 Cloudy with Light Rain 78 25.6 65 18.3 64 64 E 9 15 29.95 1014 10 16.0934 0.001 0.001
5:52 pm 17:52 Cloudy 76 24.4 67 19.4 74 74 NE 8 13 29.96 1015 10 16.0934 0.001 0.001
6:52 pm 18:52 Cloudy with Light Rain 75 23.9 68 20 79 79 NE 9 15 29.96 1015 10 16.0934 0.001 0.001
7:52 pm 19:52 Cloudy with Light Rain 75 23.9 68 20 79 79 NNE 10 17 29.96 1014 10 16.0934 0.01 0.254
8:52 pm 20:52 Cloudy 74 23.3 68 20 82 82 NE 8 13 29.97 1015 10 16.0934 0.001 0.001
9:52 pm 21:52 Cloudy 74 23.3 69 20.6 85 85 E 8 13 29.97 1015 10 16.0934 0 0
10:52 pm 22:52 Cloudy 74 23.3 69 20.6 85 85 NE 13 20 29.96 1015 10 16.0934 0.001 0.001
11:52 pm 23:52 Cloudy 73 22.8 69 20.6 87 87 NE 9 15 29.96 1015 10 16.0934 0 0

Powered by AerisWeather